period_start,C,m1,H,J0,J1,J2,J3,J4,J5,JA,JB,JC,JD,JJ,JK,JN,#
2018-09-28 00:02:15,0.00,0.00,0.00,25.10,29.48,31.53,-0.02,-2.73,1025.93,2017.61,3723.00,3040.02,3493.04,0.00,0.00,0.00,0000 0000 0000 A000 020008
2018-09-28 00:07:17,0.00,0.00,0.00,25.10,29.50,31.56,-0.02,-2.73,1025.93,2017.26,3722.99,3040.00,3493.00,0.00,0.00,0.00,0000 0000 0000 A000 020008
2018-09-28 00:12:18,0.00,0.00,0.00,25.12,29.50,31.57,-0.02,-2.74,1025.93,2017.17,3722.96,3040.00,3493.00,0.00,0.00,0.00,0000 0000 0000 A000 020008
2018-09-28 00:17:19,0.00,0.00,0.00,25.13,29.52,31.56,-0.02,-2.75,1025.91,2017.13,3722.95,3040.00,3493.00,0.00,0.00,0.00,0000 0000 0000 A000 020008
2018-09-28 00:22:20,0.00,0.00,0.00,25.15,29.53,31.60,-0.03,-2.75,1025.90,2017.09,3722.84,3040.00,3493.00,0.00,0.00,0.00,0000 0000 0000 A000 020008
2018-09-28 00:27:21,0.00,0.00,0.00,25.15,29.55,31.66,-0.01,-2.75,1025.90,2017.03,3722.68,3040.00,3493.00,0.00,0.00,0.00,0000 0000 0000 A000 020008
2018-09-28 00:32:23,0.00,0.00,0.00,25.17,29.55,31.63,-0.02,-2.75,1025.90,2017.02,3722.29,3039.99,3492.98,0.00,0.00,0.00,0000 0000 0000 A000 020008
2018-09-28 00:37:24,0.00,0.00,0.00,25.17,29.57,31.63,-0.02,-2.74,1025.90,2017.00,3722.04,3039.98,3492.94,0.00,0.00,0.00,0000 0000 0000 A000 020008
2018-09-28 00:42:25,0.00,0.00,0.00,25.20,29.58,31.65,-0.03,-2.75,1025.90,2017.00,3722.02,3039.96,3492.78,0.00,0.00,0.00,0000 0000 0000 A000 020008
2018-09-28 00:47:26,0.00,0.00,0.00,25.22,29.60,31.66,-0.03,-2.74,1025.90,2017.00,3722.01,3039.86,3492.41,0.00,0.00,0.00,0000 0000 0000 A000 020008
2018-09-28 00:52:27,0.00,0.00,0.00,25.24,29.60,31.68,-0.03,-2.74,1025.90,2017.00,3722.00,3039.80,3492.20,0.00,0.00,0.00,0000 0000 0000 A000 020008
2018-09-28 00:57:28,0.00,0.00,0.00,25.26,29.62,31.70,-0.02,-2.74,1025.86,2017.00,3722.00,3039.39,3492.05,0.00,0.00,0.00,0000 0000 0000 A000 020008
2018-09-28 01:02:29,0.00,0.00,0.00,25.27,29.63,31.73,-0.03,-2.74,1025.81,2017.00,3721.99,3039.14,3492.01,0.00,0.00,0.00,0000 0000 0000 A000 020008
2018-09-28 01:07:30,0.00,0.00,0.00,25.30,29.65,31.68,-0.02,-2.75,1025.65,2017.00,3721.95,3039.03,3492.00,0.00,0.00,0.00,0000 0000 0000 A000 020008
2018-09-28 01:12:31,0.00,0.00,0.00,25.30,29.66,31.75,-0.02,-2.75,1025.59,2016.98,3721.81,3039.00,3492.00,0.00,0.00,0.00,0000 0000 0000 A000 020008
2018-09-28 01:17:32,0.00,0.00,0.00,25.24,29.67,31.79,-0.04,-2.75,1025.51,2016.96,3721.74,3039.00,3491.98,0.00,0.00,0.00,0000 0000 0000 A000 020008
2018-09-28 01:22:33,0.00,0.00,0.00,25.15,29.68,31.81,-0.05,-2.74,1025.45,2016.95,3721.38,3038.99,3491.96,0.00,0.00,0.00,0000 0000 0000 A000 020008
2018-09-28 01:27:34,0.00,0.00,0.00,25.03,29.70,31.71,-0.05,-2.75,1025.42,2016.96,3721.25,3038.99,3491.97,0.00,0.00,0.00,0000 0000 0000 A000 020008
2018-09-28 01:32:36,0.00,0.00,0.00,24.91,29.69,31.66,-0.05,-2.74,1025.41,2016.95,3721.43,3038.99,3491.97,0.00,0.00,0.00,0000 0000 0000 A000 020008
2018-09-28 01:37:37,0.00,0.00,0.00,24.79,29.67,31.55,-0.05,-2.74,1025.41,2016.98,3721.77,3038.99,3491.99,0.00,0.00,0.00,0000 0000 0000 A000 020008
2018-09-28 01:42:38,0.00,0.00,0.00,24.68,29.66,31.36,-0.04,-2.74,1025.41,2016.98,3721.92,3039.01,3491.99,0.00,0.00,0.00,0000 0000 0000 A000 020008
2018-09-28 01:47:39,0.00,0.00,0.00,24.61,29.65,31.17,-0.04,-2.73,1025.39,2016.99,3721.98,3039.01,3491.99,0.00,0.00,0.00,0000 0000 0000 A000 020008
2018-09-28 01:52:41,0.00,0.00,0.00,24.60,29.62,31.14,-0.05,-2.74,1025.23,2016.99,3721.97,3039.06,3491.99,0.00,0.00,0.00,0000 0000 0000 A000 020008
2018-09-28 01:57:42,0.00,0.00,0.00,24.60,29.60,31.08,-0.04,-2.73,1024.97,2016.99,3721.99,3039.30,3492.01,0.00,0.00,0.00,0000 0000 0000 A000 020008
2018-09-28 02:02:44,0.00,0.00,0.00,24.63,29.58,31.03,-0.05,-2.67,1024.92,2016.99,3721.99,3039.84,3492.14,0.00,0.00,0.00,0000 0000 0000 A000 020008
2018-09-28 02:07:45,0.00,0.00,0.00,24.68,29.56,31.04,-0.05,-2.70,1024.92,2016.99,3722.00,3039.93,3492.23,0.00,0.00,0.00,0000 0000 0000 A000 020008
2018-09-28 02:12:46,0.00,0.00,0.00,24.74,29.55,31.05,-0.05,-2.71,1024.92,2016.99,3722.01,3039.98,3492.42,0.00,0.00,0.00,0000 0000 0000 A000 020008
2018-09-28 02:17:47,0.00,0.00,0.00,24.80,29.53,31.14,-0.05,-2.69,1024.92,2016.99,3722.04,3039.98,3492.86,0.00,0.00,0.00,0000 0000 0000 A000 020008
2018-09-28 02:22:48,0.00,0.00,0.00,24.86,29.52,31.19,-0.05,-2.67,1024.92,2017.00,3722.06,3039.98,3492.93,0.00,0.00,0.00,0000 0000 0000 A000 020008
2018-09-28 02:27:49,0.00,0.00,0.00,24.92,29.52,31.27,-0.05,-2.68,1024.92,2017.01,3722.08,3039.99,3492.94,0.00,0.00,0.00,0000 0000 0000 A000 020008
2018-09-28 02:32:50,0.00,0.00,0.00,24.98,29.52,31.29,-0.05,-2.68,1024.92,2017.01,3722.24,3039.99,3492.96,0.00,0.00,0.00,0000 0000 0000 A000 020008
2018-09-28 02:37:52,0.00,0.00,0.00,25.04,29.52,31.39,-0.05,-2.72,1024.92,2017.02,3722.46,3039.99,3492.99,0.00,0.00,0.00,0000 0000 0000 A000 020008
2018-09-28 02:42:53,0.00,0.00,0.00,25.10,29.52,31.43,-0.05,-2.75,1024.92,2017.01,3722.56,3039.99,3492.98,0.00,0.00,0.00,0000 0000 0000 A000 020008
2018-09-28 02:47:54,0.00,0.00,0.00,25.16,29.52,31.50,-0.05,-2.74,1024.92,2017.00,3722.44,3039.99,3492.98,0.00,0.00,0.00,0000 0000 0000 A000 020008
2018-09-28 02:52:55,0.00,0.00,0.00,25.21,29.53,31.56,-0.05,-2.74,1024.92,2017.00,3722.28,3039.99,3492.93,0.00,0.00,0.00,0000 0000 0000 A000 020008
2018-09-28 02:57:56,0.00,0.00,0.00,25.27,29.55,31.60,-0.05,-2.73,1024.92,2017.00,3722.05,3039.99,3492.82,0.00,0.00,0.00,0000 0000 0000 A000 020008
2018-09-28 03:02:57,0.00,0.00,0.00,25.33,29.56,31.66,-0.05,-2.74,1024.93,2017.00,3722.02,3039.99,3492.64,0.00,0.00,0.00,0000 0000 0000 A000 020008
2018-09-28 03:07:59,0.00,0.00,0.00,25.38,29.57,31.70,-0.05,-2.75,1024.93,2017.00,3722.00,3039.96,3492.26,0.00,0.00,0.00,0000 0000 0000 A000 020008
2018-09-28 03:13:00,0.00,0.00,0.00,25.43,29.60,31.75,-0.05,-2.75,1024.93,2017.00,3722.00,3039.92,3492.15,0.00,0.00,0.00,0000 0000 0000 A000 020008
2018-09-28 03:18:02,0.00,0.00,0.00,25.47,29.61,31.80,-0.05,-2.75,1024.93,2017.00,3722.00,3039.63,3492.03,0.00,0.00,0.00,0000 0000 0000 A000 020008
2018-09-28 03:23:03,0.00,0.00,0.00,25.52,29.64,31.85,-0.05,-2.75,1024.92,2017.00,3722.00,3039.30,3492.00,0.00,0.00,0.00,0000 0000 0000 A000 020008
2018-09-28 03:28:05,0.00,0.00,0.00,25.56,29.66,31.89,-0.05,-2.75,1024.92,2016.98,3721.96,3039.07,3492.00,0.00,0.00,0.00,0000 0000 0000 A000 020008
2018-09-28 03:33:06,0.00,0.00,0.00,25.61,29.69,31.94,-0.05,-2.75,1024.92,2016.93,3721.65,3039.00,3491.98,0.00,0.00,0.00,0000 0000 0000 A000 020008
2018-09-28 03:38:07,0.00,0.00,0.00,25.66,29.71,31.97,-0.05,-2.75,1024.91,2016.79,3721.10,3038.98,3491.65,0.00,0.00,0.00,0000 0000 0000 A000 020008
2018-09-28 03:43:08,0.00,0.00,0.00,25.72,29.74,32.01,-0.05,-2.75,1024.88,2016.45,3721.03,3038.90,3491.20,0.00,0.00,0.00,0000 0000 0000 A000 020008
2018-09-28 03:48:10,0.00,0.00,0.00,25.76,29.77,32.08,-0.05,-2.75,1024.91,2016.15,3721.00,3038.49,3491.02,0.00,0.00,0.00,0000 0000 0000 A000 020008
2018-09-28 03:53:11,0.00,0.00,0.00,25.81,29.79,32.09,-0.05,-2.75,1024.92,2016.02,3720.98,3038.04,3490.99,0.00,0.00,0.00,0000 0000 0000 A000 020008
2018-09-28 03:58:12,0.00,0.00,0.00,25.85,29.82,32.11,-0.05,-2.75,1024.92,2016.00,3720.79,3038.00,3490.93,0.00,0.00,0.00,0000 0000 0000 A000 020008
2018-09-28 04:03:13,0.00,0.00,0.00,25.89,29.85,32.18,-0.05,-2.75,1024.91,2016.00,3720.10,3037.99,3490.23,0.00,0.00,0.00,0000 0000 0000 A000 020008
2018-09-28 04:08:14,0.00,0.00,0.00,25.93,29.88,32.24,-0.05,-2.75,1024.92,2016.00,3720.00,3037.95,3490.02,0.00,0.00,0.00,0000 0000 0000 A000 020008
2018-09-28 04:13:15,0.00,0.00,0.00,25.97,29.92,32.26,-0.05,-2.75,1024.89,2015.99,3720.00,3037.66,3490.01,0.00,0.00,0.00,0000 0000 0000 A000 020008
2018-09-28 04:18:16,0.00,0.00,0.00,26.00,29.95,32.30,-0.05,-2.75,1024.91,2015.99,3719.99,3037.10,3490.00,0.00,0.00,0.00,0000 0000 0000 A000 020008
2018-09-28 04:23:17,0.00,0.00,0.00,26.03,29.98,32.32,-0.05,-2.75,1024.92,2015.73,3719.53,3037.01,3489.74,0.00,0.00,0.00,0000 0000 0000 A000 020008
2018-09-28 04:28:18,0.00,0.00,0.00,26.06,30.01,32.40,-0.05,-2.75,1024.91,2015.40,3719.17,3036.99,3489.26,0.00,0.00,0.00,0000 0000 0000 A000 020008
2018-09-28 04:33:20,0.00,0.00,0.00,26.09,30.05,32.45,-0.05,-2.75,1024.92,2015.05,3719.00,3036.87,3489.00,0.00,0.00,0.00,0000 0000 0000 A000 020008
2018-09-28 04:38:21,0.00,0.00,0.00,26.12,30.08,32.45,-0.05,-2.77,1024.92,2015.00,3718.97,3036.27,3488.98,0.00,0.00,0.00,0000 0000 0000 A000 020008
2018-09-28 04:43:22,0.00,0.00,0.00,26.15,30.11,32.49,-0.05,-2.76,1024.91,2015.00,3718.36,3036.01,3488.39,0.00,0.00,0.00,0000 0000 0000 A000 020008
2018-09-28 04:48:24,0.00,0.00,0.00,26.17,30.15,32.52,-0.05,-2.77,1024.84,2014.95,3718.03,3036.00,3488.02,0.00,0.00,0.00,0000 0000 0000 A000 020008
2018-09-28 04:53:25,0.00,0.00,0.00,26.20,30.18,32.54,-0.05,-2.77,1024.73,2014.79,3718.00,3035.96,3488.00,0.00,0.00,0.00,0000 0000 0000 A000 020008
2018-09-28 04:58:26,0.00,0.00,0.00,26.22,30.21,32.55,-0.05,-2.77,1024.78,2014.35,3717.98,3035.60,3487.96,0.00,0.00,0.00,0000 0000 0000 A000 020008
2018-09-28 05:03:28,0.00,0.00,0.00,26.24,30.25,32.59,-0.05,-2.77,1024.56,2014.07,3717.72,3035.13,3487.60,0.00,0.00,0.00,0000 0000 0000 A000 020008
2018-09-28 05:08:29,0.00,0.00,0.00,26.26,30.28,32.59,-0.05,-2.91,1024.66,2014.01,3717.06,3035.00,3487.04,0.00,0.00,0.00,0000 0000 0000 A000 020008
2018-09-28 05:13:30,0.00,0.00,0.00,26.29,30.31,32.67,-0.05,-2.89,1024.69,2014.00,3717.00,3035.00,3487.00,0.00,0.00,0.00,0000 0000 0000 A000 020008
2018-09-28 05:18:31,0.00,0.00,0.00,26.32,30.34,32.68,-0.05,-2.98,1024.84,2014.00,3716.99,3034.91,3486.96,0.00,0.00,0.00,0000 0000 0000 A000 020008
2018-09-28 05:23:32,0.00,0.00,0.00,26.36,30.37,32.73,-0.05,-2.98,1024.88,2013.98,3716.94,3034.51,3486.57,0.00,0.00,0.00,0000 0000 0000 A000 020008
2018-09-28 05:28:34,0.00,0.00,0.00,26.39,30.41,32.74,-0.05,-2.99,1024.78,2013.92,3716.35,3034.04,3486.06,0.00,0.00,0.00,0000 0000 0000 A000 020008
2018-09-28 05:33:35,0.00,0.00,0.00,26.43,30.44,32.78,-0.05,-2.98,1024.88,2013.62,3716.01,3034.00,3486.00,0.00,0.00,0.00,0000 0000 0000 A000 020008
2018-09-28 05:38:36,0.00,0.00,0.00,26.46,30.47,32.81,-0.05,-3.00,1024.89,2013.20,3716.00,3033.99,3485.98,0.00,0.00,0.00,0000 0000 0000 A000 020008
2018-09-28 05:43:38,0.00,0.00,0.00,26.47,30.50,32.83,-0.05,-2.99,1024.90,2013.04,3715.99,3033.92,3485.71,0.00,0.00,0.00,0000 0000 0000 A000 020008
2018-09-28 05:48:39,0.00,0.00,0.00,26.50,30.53,32.84,-0.05,-2.98,1024.92,2013.00,3715.55,3033.28,3485.06,0.00,0.00,0.00,0000 0000 0000 A000 020008
2018-09-28 05:53:40,0.00,0.00,0.00,26.51,30.56,32.91,-0.05,-3.00,1024.92,2013.00,3715.07,3033.02,3485.00,0.00,0.00,0.00,0000 0000 0000 A000 020008
2018-09-28 05:58:42,0.00,0.00,0.00,26.53,30.59,32.93,-0.05,-2.98,1024.92,2013.00,3715.00,3033.00,3484.96,0.00,0.00,0.00,0000 0000 0000 A000 020008
2018-09-28 06:03:43,0.00,0.00,0.00,26.55,30.62,32.94,-0.05,-2.99,1024.94,2012.97,3714.99,3032.98,3484.59,0.00,0.00,0.00,0000 0000 0000 A000 020008
2018-09-28 06:08:44,0.00,0.00,0.00,26.57,30.65,32.98,-0.05,-3.00,1025.10,2012.79,3714.87,3032.84,3484.07,0.00,0.00,0.00,0000 0000 0000 A000 020008
2018-09-28 06:13:45,0.00,0.00,0.00,26.58,30.68,32.96,-0.05,-3.00,1025.34,2012.34,3714.25,3032.23,3484.00,0.00,0.00,0.00,0000 0000 0000 A000 020008
2018-09-28 06:18:46,0.00,0.00,0.00,26.60,30.71,33.00,-0.05,-2.99,1025.32,2012.17,3714.05,3032.02,3484.00,0.00,0.00,0.00,0000 0000 0000 A000 020008
2018-09-28 06:23:47,0.00,0.00,0.00,26.62,30.73,33.02,-0.05,-3.00,1025.38,2012.02,3714.00,3032.00,3483.95,0.00,0.00,0.00,0000 0000 0000 A000 020008
2018-09-28 06:28:48,0.00,0.00,0.00,26.64,30.76,33.01,-0.05,-3.00,1025.40,2012.01,3713.98,3031.99,3483.44,0.00,0.00,0.00,0000 0000 0000 A000 020008
2018-09-28 06:33:50,0.00,0.00,0.00,26.67,30.79,33.02,-0.05,-3.00,1025.40,2012.00,3713.66,3031.89,3483.02,0.00,0.00,0.00,0000 0000 0000 A000 020008
2018-09-28 06:38:51,0.00,0.00,0.00,26.69,30.81,33.08,-0.05,-3.00,1025.32,2011.99,3713.12,3031.39,3483.00,0.00,0.00,0.00,0000 0000 0000 A000 020008
2018-09-28 06:43:52,0.00,0.00,0.00,26.71,30.84,33.10,-0.05,-2.98,1025.36,2011.98,3713.01,3031.05,3482.95,0.00,0.00,0.00,0000 0000 0000 A000 020008
2018-09-28 06:48:53,0.00,0.00,0.00,26.73,30.87,33.14,-0.05,-3.00,1025.40,2011.86,3713.00,3031.00,3482.59,0.00,0.00,0.00,0000 0000 0000 A000 020008
2018-09-28 06:53:54,0.00,0.00,0.00,26.75,30.90,33.15,-0.05,-3.00,1025.40,2011.49,3712.96,3030.99,3482.08,0.00,0.00,0.00,0000 0000 0000 A000 020008
2018-09-28 06:58:55,0.00,0.00,0.00,26.77,30.92,33.18,-0.05,-3.00,1025.42,2011.09,3712.57,3030.92,3482.00,0.00,0.00,0.00,0000 0000 0000 A000 020008
2018-09-28 07:03:56,0.00,0.00,0.00,26.78,30.95,33.20,-0.05,-3.00,1025.41,2011.04,3712.20,3030.59,3481.99,0.00,0.00,0.00,0000 0000 0000 A000 020008
2018-09-28 07:08:58,0.00,0.00,0.00,26.80,30.97,33.18,-0.05,-3.00,1025.42,2011.00,3712.01,3030.07,3481.93,0.00,0.00,0.00,0000 0000 0000 A000 020008
2018-09-28 07:13:59,0.00,0.00,0.00,26.81,31.00,33.21,-0.05,-3.00,1025.42,2011.00,3712.00,3030.01,3481.64,0.00,0.00,0.00,0000 0000 0000 A000 020008
2018-09-28 07:19:00,0.00,0.00,0.00,26.82,31.02,33.23,-0.05,-3.00,1025.42,2011.00,3711.99,3030.00,3481.13,0.00,0.00,0.00,0000 0000 0000 A000 020008
2018-09-28 07:24:01,0.00,0.00,0.00,26.82,31.04,33.27,-0.05,-3.00,1025.42,2011.00,3711.98,3030.00,3481.02,0.00,0.00,0.00,0000 0000 0000 A000 020008
2018-09-28 07:29:02,0.00,0.00,0.00,26.81,31.06,33.21,-0.05,-3.00,1025.58,2010.98,3711.83,3029.99,3481.00,0.00,0.00,0.00,0000 0000 0000 A000 020008
2018-09-28 07:34:04,0.00,0.00,0.00,26.71,31.08,33.12,-0.05,-3.00,1025.68,2010.86,3711.13,3029.72,3480.99,0.00,0.00,0.00,0000 0000 0000 A000 020008
2018-09-28 07:39:05,0.00,0.00,0.00,26.64,31.10,32.87,-0.05,-3.00,1025.63,2010.72,3711.01,3029.36,3480.93,0.00,0.00,0.00,0000 0000 0000 A000 020008
2018-09-28 07:44:06,0.00,0.00,0.00,26.56,31.10,32.63,-0.05,-3.00,1025.44,2010.60,3711.01,3029.29,3480.87,0.00,0.00,0.00,0000 0000 0000 A000 020008
2018-09-28 07:49:07,0.00,0.00,0.00,26.50,31.10,32.42,-0.05,-3.00,1025.43,2010.66,3711.02,3029.46,3480.90,0.00,0.00,0.00,0000 0000 0000 A000 020008
2018-09-28 07:54:08,0.00,0.00,0.00,26.44,31.08,32.23,-0.05,-3.00,1025.50,2010.87,3711.17,3029.90,3480.99,0.00,0.00,0.00,0000 0000 0000 A000 020008
2018-09-28 07:59:09,0.00,0.00,0.00,26.40,31.05,32.06,-0.05,-3.00,1025.44,2010.94,3711.39,3029.98,3480.99,0.00,0.00,0.00,0000 0000 0000 A000 020008
2018-09-28 08:04:11,0.00,0.00,0.00,26.37,31.01,31.91,-0.05,-3.00,1025.42,2010.99,3711.96,3029.99,3481.06,0.00,0.00,0.00,0000 0000 0000 A000 020008
2018-09-28 08:09:12,0.00,0.00,0.00,26.36,30.97,31.78,-0.05,-2.99,1025.41,2010.99,3711.99,3030.03,3481.57,0.00,0.00,0.00,0000 0000 0000 A000 020008
2018-09-28 08:14:13,0.00,0.00,0.00,26.34,30.92,31.66,-0.05,-3.00,1025.41,2011.00,3712.05,3030.59,3481.97,0.00,0.00,0.00,0000 0000 0000 A000 020008
2018-09-28 08:19:14,0.00,0.00,0.00,26.32,30.87,31.57,-0.05,-3.00,1025.40,2011.02,3712.47,3030.94,3482.00,0.00,0.00,0.00,0000 0000 0000 A000 020008
2018-09-28 08:24:15,0.00,0.00,0.00,26.30,30.82,31.53,-0.05,-2.99,1025.39,2011.26,3712.95,3030.99,3482.11,0.00,0.00,0.00,0000 0000 0000 A000 020008
2018-09-28 08:29:16,0.00,0.00,0.00,26.28,30.77,31.50,-0.05,-2.98,1025.40,2011.84,3712.99,3031.04,3482.76,0.00,0.00,0.00,0000 0000 0000 A000 020008
2018-09-28 08:34:17,0.00,0.00,0.00,26.26,30.72,31.46,-0.05,-2.98,1025.40,2011.97,3713.03,3031.53,3482.99,0.00,0.00,0.00,0000 0000 0000 A000 020008
2018-09-28 08:39:19,0.00,0.00,0.00,26.24,30.67,31.43,-0.05,-2.98,1025.39,2011.99,3713.60,3031.96,3483.00,0.00,0.00,0.00,0000 0000 0000 A000 020008
2018-09-28 08:44:20,0.00,0.00,0.00,26.24,30.63,31.41,-0.05,-2.94,1025.40,2011.99,3713.97,3032.00,3483.49,0.00,0.00,0.00,0000 0000 0000 A000 020008
2018-09-28 08:49:21,0.00,0.00,0.00,26.22,30.58,31.38,-0.05,-2.95,1025.40,2012.03,3714.01,3032.13,3483.98,0.00,0.00,0.00,0000 0000 0000 A000 020008
2018-09-28 08:54:22,0.00,0.00,0.00,26.14,30.54,31.36,-0.05,-2.95,1025.40,2012.35,3714.32,3032.80,3484.00,0.00,0.00,0.00,0000 0000 0000 A000 020008
2018-09-28 08:59:24,0.00,0.00,0.00,25.96,30.50,31.47,-0.05,-2.96,1025.40,2012.82,3714.94,3032.98,3484.42,0.00,0.00,0.00,0000 0000 0000 A000 020008
2018-09-28 09:04:25,0.00,0.00,0.00,25.88,30.47,31.58,-0.06,-2.95,1025.41,2012.97,3714.99,3032.99,3484.95,0.00,0.00,0.00,0000 0000 0000 A000 020008
2018-09-28 09:09:26,0.00,0.00,0.00,25.85,30.44,31.71,-0.05,-2.90,1025.43,2012.99,3715.00,3033.03,3484.99,0.00,0.00,0.00,0000 0000 0000 A000 020008
2018-09-28 09:14:28,0.00,0.00,0.00,25.84,30.41,31.83,-0.05,-2.93,1025.42,2012.99,3715.26,3033.38,3484.99,0.00,0.00,0.00,0000 0000 0000 A000 020008
2018-09-28 09:19:29,0.00,0.00,0.00,25.83,30.39,31.89,-0.06,-2.95,1025.41,2012.99,3715.50,3033.69,3485.02,0.00,0.00,0.00,0000 0000 0000 A000 020008
2018-09-28 09:24:30,0.00,0.00,0.00,25.82,30.37,31.97,-0.05,-2.98,1025.42,2013.00,3715.89,3033.90,3485.19,0.00,0.00,0.00,0000 0000 0000 A000 020008
2018-09-28 09:29:31,0.00,0.00,0.00,25.82,30.36,32.02,-0.06,-2.94,1025.47,2013.01,3715.98,3033.97,3485.60,0.00,0.00,0.00,0000 0000 0000 A000 020008
2018-09-28 09:34:32,0.00,0.00,0.00,25.82,30.35,32.07,-0.06,-2.98,1025.71,2013.02,3715.99,3033.99,3485.88,0.00,0.00,0.00,0000 0000 0000 A000 020008
2018-09-28 09:39:34,0.00,0.00,0.00,25.84,30.35,32.11,-0.06,-2.98,1025.81,2013.09,3715.99,3033.99,3485.97,0.00,0.00,0.00,0000 0000 0000 A000 020008
2018-09-28 09:44:35,0.00,0.00,0.00,25.85,30.35,32.16,-0.06,-3.00,1025.78,2013.10,3715.99,3033.99,3485.98,0.00,0.00,0.00,0000 0000 0000 A000 020008
2018-09-28 09:49:36,0.00,0.00,0.00,25.86,30.34,32.22,-0.06,-3.00,1025.50,2013.18,3715.99,3033.99,3485.98,0.00,0.00,0.00,0000 0000 0000 A000 020008
2018-09-28 09:54:38,0.00,0.00,0.00,25.87,30.34,32.22,-0.05,-3.00,1025.43,2013.28,3716.00,3034.01,3485.99,0.00,0.00,0.00,0000 0000 0000 A000 020008
2018-09-28 09:59:39,0.00,0.00,0.00,25.89,30.35,32.26,-0.06,-2.98,1025.42,2013.29,3716.01,3034.01,3485.99,0.00,0.00,0.00,0000 0000 0000 A000 020008
2018-09-28 10:04:40,0.00,0.00,0.00,25.90,30.35,32.26,-0.06,-3.00,1025.42,2013.38,3716.00,3034.02,3485.99,0.00,0.00,0.00,0000 0000 0000 A000 020008
2018-09-28 10:09:41,0.00,0.00,0.00,25.90,30.35,32.29,-0.06,-3.00,1025.55,2013.36,3716.01,3034.01,3485.99,0.00,0.00,0.00,0000 0000 0000 A000 020008
2018-09-28 10:14:42,0.00,0.00,0.00,25.90,30.35,32.32,-0.06,-3.00,1025.68,2013.42,3716.01,3034.01,3485.99,0.00,0.00,0.00,0000 0000 0000 A000 020008
2018-09-28 10:19:43,0.00,0.00,0.00,25.90,30.35,32.33,-0.06,-3.00,1025.43,2013.49,3716.02,3034.01,3485.99,0.00,0.00,0.00,0000 0000 0000 A000 020008
2018-09-28 10:24:44,0.00,0.00,0.00,25.90,30.36,32.33,-0.06,-3.00,1025.43,2013.39,3716.01,3034.00,3485.99,0.00,0.00,0.00,0000 0000 0000 A000 020008
2018-09-28 10:29:45,0.00,0.00,0.00,25.90,30.37,32.34,-0.06,-3.00,1025.43,2013.37,3716.01,3034.02,3485.99,0.00,0.00,0.00,0000 0000 0000 A000 020008
2018-09-28 10:34:47,0.00,0.00,0.00,25.90,30.37,32.35,-0.06,-3.00,1025.42,2013.17,3716.00,3034.00,3485.98,0.00,0.00,0.00,0000 0000 0000 A000 020008
2018-09-28 10:39:48,0.00,0.00,0.00,25.90,30.37,32.33,-0.07,-3.00,1025.43,2013.12,3716.00,3034.00,3485.97,0.00,0.00,0.00,0000 0000 0000 A000 020008
2018-09-28 10:44:49,0.00,0.00,0.00,25.90,30.37,32.39,-0.06,-3.00,1025.45,2013.05,3716.00,3033.99,3485.93,0.00,0.00,0.00,0000 0000 0000 A000 020008
2018-09-28 10:49:51,0.00,0.00,0.00,25.90,30.38,32.36,-0.06,-3.00,1025.46,2013.07,3716.00,3033.99,3485.97,0.00,0.00,0.00,0000 0000 0000 A000 020008
2018-09-28 10:54:52,0.00,0.00,0.00,25.90,30.40,32.37,-0.06,-2.99,1025.45,2013.07,3716.00,3033.99,3485.94,0.00,0.00,0.00,0000 0000 0000 A000 020008
2018-09-28 10:59:53,0.00,0.00,0.00,25.90,30.40,32.38,-0.07,-3.00,1025.45,2013.04,3716.00,3033.99,3485.94,0.00,0.00,0.00,0000 0000 0000 A000 020008
2018-09-28 11:04:55,0.00,0.00,0.00,25.89,30.40,32.35,-0.07,-3.00,1025.46,2013.04,3716.00,3033.99,3485.91,0.00,0.00,0.00,0000 0000 0000 A000 020008
2018-09-28 11:09:56,0.00,0.00,0.00,25.87,30.40,32.34,-0.06,-3.00,1025.42,2013.03,3715.99,3033.99,3485.91,0.00,0.00,0.00,0000 0000 0000 A000 020008
2018-09-28 11:14:57,0.00,0.00,0.00,25.87,30.40,32.35,-0.06,-3.00,1025.42,2013.02,3715.99,3033.99,3485.93,0.00,0.00,0.00,0000 0000 0000 A000 020008
2018-09-28 11:19:58,0.00,0.00,0.00,25.87,30.40,32.38,-0.06,-3.00,1025.47,2013.02,3715.99,3033.99,3485.86,0.00,0.00,0.00,0000 0000 0000 A000 020008
2018-09-28 11:25:00,0.00,0.00,0.00,25.87,30.40,32.35,-0.07,-3.00,1025.61,2013.05,3715.99,3033.99,3485.89,0.00,0.00,0.00,0000 0000 0000 A000 020008
2018-09-28 11:30:01,0.00,0.00,0.00,25.86,30.41,32.33,-0.07,-3.00,1025.68,2013.01,3715.98,3033.98,3485.76,0.00,0.00,0.00,0000 0000 0000 A000 020008
2018-09-28 11:35:02,0.00,0.00,0.00,25.85,30.42,32.34,-0.07,-3.00,1025.76,2013.00,3715.98,3033.98,3485.61,0.00,0.00,0.00,0000 0000 0000 A000 020008
2018-09-28 11:40:03,0.00,0.00,0.00,25.85,30.42,32.34,-0.07,-3.00,1025.89,2013.01,3715.97,3033.98,3485.46,0.00,0.00,0.00,0000 0000 0000 A000 020008
2018-09-28 11:45:05,0.00,0.00,0.00,25.85,30.42,32.30,-0.08,-3.00,1025.89,2013.01,3715.97,3033.97,3485.38,0.00,0.00,0.00,0000 0000 0000 A000 020008
2018-09-28 11:50:06,0.00,0.00,0.00,25.84,30.42,32.35,-0.09,-3.00,1025.90,2013.01,3715.96,3033.96,3485.35,0.00,0.00,0.00,0000 0000 0000 A000 020008
2018-09-28 11:55:07,0.00,0.00,0.00,25.83,30.42,32.39,-0.08,-3.00,1025.90,2013.01,3715.87,3033.94,3485.20,0.00,0.00,0.00,0000 0000 0000 A000 020008
2018-09-28 12:00:09,0.00,0.00,0.00,25.83,30.42,32.35,-0.08,-3.00,1025.90,2013.00,3715.70,3033.88,3485.06,0.00,0.00,0.00,0000 0000 0000 A000 020008
2018-09-28 12:05:10,0.00,0.00,0.00,25.82,30.42,32.33,-0.09,-3.00,1025.91,2013.00,3715.57,3033.85,3485.03,0.00,0.00,0.00,0000 0000 0000 A000 020008
2018-09-28 12:10:11,0.00,0.00,0.00,25.81,30.42,32.38,-0.08,-3.00,1025.91,2013.00,3715.94,3033.97,3485.19,0.00,0.00,0.00,0000 0000 0000 A000 020008
2018-09-28 12:15:13,0.00,0.00,0.00,25.80,30.42,32.37,-0.09,-3.00,1025.93,2013.01,3715.93,3033.98,3485.13,0.00,0.00,0.00,0000 0000 0000 A000 020008
2018-09-28 12:20:14,0.00,0.00,0.00,25.80,30.42,32.28,-0.09,-3.00,1025.97,2013.00,3715.93,3033.97,3485.18,0.00,0.00,0.00,0000 0000 0000 A000 020008
2018-09-28 12:25:15,0.00,0.00,0.00,25.79,30.41,32.29,-0.09,-3.00,1026.03,2013.01,3715.97,3033.98,3485.41,0.00,0.00,0.00,0000 0000 0000 A000 020008
2018-09-28 12:30:16,0.00,0.00,0.00,25.78,30.41,32.28,-0.09,-3.00,1026.08,2013.00,3715.97,3033.98,3485.32,0.00,0.00,0.00,0000 0000 0000 A000 020008
2018-09-28 12:35:18,0.00,0.00,0.00,25.77,30.40,32.26,-0.09,-3.00,1026.21,2013.00,3715.93,3033.96,3485.21,0.00,0.00,0.00,0000 0000 0000 A000 020008
2018-09-28 12:40:19,0.00,0.00,0.00,25.77,30.40,32.30,-0.09,-3.00,1026.07,2013.01,3715.96,3033.98,3485.31,0.00,0.00,0.00,0000 0000 0000 A000 020008
2018-09-28 12:45:20,0.00,0.00,0.00,25.77,30.40,32.28,-0.09,-3.00,1025.99,2013.00,3715.92,3033.96,3485.21,0.00,0.00,0.00,0000 0000 0000 A000 020008
2018-09-28 12:50:21,0.00,0.00,0.00,25.75,30.40,32.30,-0.09,-3.00,1026.09,2013.01,3715.93,3033.96,3485.24,0.00,0.00,0.00,0000 0000 0000 A000 020008
2018-09-28 12:55:22,0.00,0.00,0.00,25.75,30.40,32.27,-0.10,-3.00,1026.16,2013.00,3715.96,3033.97,3485.33,0.00,0.00,0.00,0000 0000 0000 A000 020008
2018-09-28 13:00:23,0.00,0.00,0.00,25.75,30.40,32.28,-0.09,-3.00,1026.11,2013.02,3715.97,3033.98,3485.43,0.00,0.00,0.00,0000 0000 0000 A000 020008
2018-09-28 13:05:24,0.00,0.00,0.00,25.74,30.40,32.29,-0.09,-3.00,1026.11,2013.03,3715.97,3033.99,3485.58,0.00,0.00,0.00,0000 0000 0000 A000 020008
2018-09-28 13:10:25,0.00,0.00,0.00,25.72,30.39,32.28,-0.09,-3.00,1026.32,2013.02,3715.97,3033.99,3485.73,0.00,0.00,0.00,0000 0000 0000 A000 020008
2018-09-28 13:15:27,0.00,0.00,0.00,25.72,30.38,32.24,-0.09,-3.00,1026.30,2013.03,3715.99,3033.99,3485.78,0.00,0.00,0.00,0000 0000 0000 A000 020008
2018-09-28 13:20:28,0.00,0.00,0.00,25.72,30.37,32.23,-0.09,-3.00,1026.35,2013.01,3715.96,3033.98,3485.54,0.00,0.00,0.00,0000 0000 0000 A000 020008